Powrót do katalogu

STARLINK-11108

AktywnyŁącznośćVLEO
NORAD 59712·PAYLOAD·🇺🇸 United States

Wystrzelony May 10, 2024 z Vandenberg Space Force Base

Loading…

Następne Przeloty (najbliższe 24 godziny)

TLE

ŚwieżeSource: CelesTrak SupGP

Epoka: Sep 15, 2026, 03:00 UTC

1 59712C 24088E   26258.12548611  .00070241  00000+0  57836-3 0  2580
2 59712  53.1564 112.5577 0001095  95.9972 257.0722 15.69684460    19

Śledź STARLINK-11108 w czasie rzeczywistym z AllMySat

Download on the App Store